Вернуться в каталог

SL-12 R/B(2)

АктивенGEO
NORAD 15963·ROCKET BODY·🇷🇺 Russia

Запущен Aug 8, 1985 с Baikonur Cosmodrome

Loading…

TLE

СвежийSource: Space-Track

Эпоха: Sep 14, 2026, 13:28 UTC

1 15963U 85070F   26257.56123427 -.00000090  00000-0  00000+0 0  9995
2 15963  10.6492 320.6007 0010295 193.1150 331.4818  0.97803640120450

Отслеживайте SL-12 R/B(2) в реальном времени с AllMySat

Download on the App Store